Home > Weather > Volos > Past weeks

Flag for Greece Past Weather in Volos, Greece — Yesterday and Last 2 Weeks

Now
79 °F

Passing clouds.


Feels Like: 81 °F
Forecast: 74 / 86 °F
Wind: 13 mph from Northeast

Location: Skiathos Island

Current Time: Jun 25, 2016 at 10:00:29 AM

Latest Report: Jun 25, 2016 at 8:50 AM


Visibility: N/A

Pressure: 29.86 "Hg

Humidity: 70%

Dew Point: 68 °F

Location of VolosLocation

Past Weather in Volos — Graph

°F

Volos Temperature Yesterday

Maximum temperature yesterday: 90 °F (at 11:50 AM)
Minimum temperature yesterday: 81 °F (at 4:50 AM)
Average temperature yesterday: 85 °F

High & Low Weather Summary for the Past Weeks

 TemperatureHumidityPressure
High91 °F (Jun 21, 12:50 PM)88% (Jun 11, 7:50 AM)30.04 "Hg (Jun 11, 7:50 AM)
Low63 °F (Jun 11, 4:50 AM)33% (Jun 16, 10:50 AM)29.56 "Hg (Jun 14, 4:50 AM)
Average80 °F58%29.89 "Hg
* Reported Jun 10 8:50 AM — Jun 25 8:50 AM, Volos, Weather by CustomWeather, © 2016

Note: Actual official high and low records may vary slightly from our data, if they occured in-between our weather recording intervals... More about our weather records

Advertising

Volos Weather History for the Previous 24 Hours

Scroll right to see more
 ConditionsComfort  
Time TempWeatherWind HumidityBarometerVisibility
8:50 AM
Sat, Jun 25
79 °FPassing clouds.13 mph70%29.86 "HgN/A
7:50 AM79 °FPassing clouds.9 mph70%29.86 "HgN/A
6:50 AM79 °FPassing clouds.9 mph70%29.86 "HgN/A
5:50 AM79 °FClear.8 mph70%29.86 "Hg10 mi
4:50 AM79 °FClear.8 mph74%29.86 "Hg10 mi
9:50 PM
Fri, Jun 24
82 °FPassing clouds.6 mph66%29.86 "HgN/A
8:50 PM82 °FPassing clouds.6 mph66%29.86 "HgN/A
7:50 PM84 °FSunny.7 mph66%29.86 "Hg10 mi
6:50 PM86 °FSunny.8 mph59%29.86 "Hg10 mi
5:50 PM86 °FSunny.8 mph59%29.86 "Hg10 mi
4:50 PM84 °FSunny.9 mph66%29.89 "Hg10 mi
3:50 PM86 °FSunny.8 mph62%29.92 "Hg10 mi
2:50 PM86 °FPassing clouds.8 mph59%29.92 "HgN/A
1:50 PM88 °FPassing clouds.10 mph52%29.92 "HgN/A
12:50 PM90 °FPassing clouds.8 mph49%29.92 "HgN/A
11:50 AM90 °FPassing clouds.9 mph55%29.95 "HgN/A
10:50 AM86 °FPassing clouds.7 mph62%29.95 "HgN/A
Weather by CustomWeather, © 2016

See weather overviewHow to use our weather pages